Temperature
3 3 3 3 3 4 4 4 3 3 3 4 5 6 6 5 6 6 6 6 6 7 7 7 7 7 7 7 7 7 7 7 7 7 7 6 6 6
3 3 3 3 3 3 3 3 3 3 3 4 4 5 5 5 5 5 6 6 6 6 7 7 7 7 7 7 7 7 7 7 7 7 6 6 6 6
3 3 3 3 3 3 3 3 3 3 3 4 4 4 4 5 5 5 5 5 6 6 6 6 7 6 7 7 7 7 7 7 6 6 6 6 5 5
3 3 3 3 2 2 2 3 3 3 3 3 4 4 4 4 5 5 5 5 5 6 6 6 6 6 6 6 6 6 6 6 6 6 5 5 5 5
2 2 2 2 2 2 2 2 2 2 2 3 3 3 4 4 4 4 5 5 5 5 5 6 6 6 6 6 6 6 6 6 5 5 5 5 5 4
2 2 2 2 2 2 2 2 2 2 2 2 2 3 3 3 3 4 4 4 4 5 5 5 5 5 6 5 5 5 5 5 5 5 4 4 4 4
2 2 2 1 1 2 2 2 2 2 2 2 2 2 3 3 3 3 3 4 4 4 4 5 5 5 5 5 5 5 5 5 4 4 4 4 4 3
1 1 1 1 1 1 2 2 2 2 2 2 2 2 3 3 3 3 3 3 3 4 4 4 4 4 5 5 4 4 4 4 4 4 3 3 3 3
1 1 1 1 1 1 1 2 2 2 2 2 2 2 3 3 3 3 3 3 3 3 3 3 3 3 4 4 4 4 4 4 3 3 3 3 3 3
0 0 1 1 1 1 1 1 1 1 2 2 2 2 3 3 3 3 3 3 3 3 3 2 3 3 3 3 3 3 3 3 3 3 3 3 3 2
0 0 0 1 1 1 1 1 1 1 1 2 2 2 2 2 3 2 2 2 2 2 2 2 2 2 2 2 2 2 2 2 2 2 2 2 2 2
-0 0 0 0 0 0 1 1 1 1 1 2 2 2 2 2 2 2 2 2 2 1 2 2 2 2 1 1 1 2 2 2 2 2 2 2 2 1
-1 -0 -0 -0 -0 0 0 1 1 1 1 1 1 2 2 2 2 2 2 2 2 2 2 2 1 1 1 0 0 1 1 1 1 1 1 1 1 1
-1 -1 -1 -1 -0 -0 0 0 1 1 1 1 1 1 1 1 1 2 2 2 2 2 2 2 2 1 1 0 -0 0 0 0 1 1 1 1 0 0
-1 -1 -1 -1 -1 -0 -0 0 1 1 1 1 1 1 1 1 1 1 1 1 1 1 1 1 1 1 1 1 0 0 0 -0 0 0 0 0 -0 -0
-2 -2 -1 -1 -1 -1 -0 0 0 0 0 0 0 0 0 1 1 1 1 1 1 1 1 1 1 1 1 0 0 0 0 -0 -0 -0 -1 -1 -1 -1
-2 -1 -1 -1 -1 -1 -1 -0 -0 0 0 0 0 0 0 0 0 0 0 1 0 0 0 0 0 0 0 0 0 -0 -0 -0 -1 -1 -1 -1 -1 -1
-1 -2 -2 -2 -2 -1 -1 -1 -1 -0 -0 0 0 0 0 0 0 -0 0 0 0 -0 -0 -0 -0 -0 -0 -1 -1 -1 -1 -1 -1 -1 -1 -1 -2 -2
-1 -2 -2 -2 -2 -1 -1 -1 -1 -0 -0 -0 -0 0 0 0 -0 -0 -0 -0 -0 -0 -1 -0 -0 0 -0 -1 -2 -1 -1 -1 -1 -2 -2 -2 -2 -2
-2 -2 -2 -2 -2 -2 -2 -1 -1 -0 -0 -0 -0 -0 -0 -0 -0 -1 -1 -1 -1 -1 -1 -1 -0 -0 0 -1 -2 -2 -2 -1 -1 -2 -2 -2 -2 -2
-2 -2 -2 -2 -2 -2 -2 -1 -1 -1 -0 -0 -1 -1 -1 -1 -1 -1 -1 -1 -1 -1 -1 -1 -1 -1 -1 -1 -1 -2 -2 -2 -2 -2 -2 -2 -2 -2
-3 -2 -2 -2 -2 -2 -2 -1 -1 -1 -1 -1 -1 -1 -1 -1 -1 -1 -1 -1 -1 -1 -1 -1 -1 -1 -1 -1 -2 -2 -3 -3 -3 -3 -3 -2 -2 -3
-3 -3 -2 -2 -2 -2 -2 -1 -1 -1 -1 -1 -1 -1 -1 -1 -1 -1 -1 -1 -1 -1 -1 -1 -1 -1 -1 -2 -2 -2 -3 -3 -3 -3 -3 -3 -3 -3
Wind_Speed
9 9 9 8 7 7 7 7 8 9 9 6 4 5 5 6 8 8 9 13 13 13 12 12 12 12 12 11 11 11 11 10 10 9 10 10 10 10
8 9 9 8 8 7 8 7 8 9 9 6 5 4 5 6 9 7 8 13 13 13 13 12 12 12 11 11 10 10 9 9 8 9 10 9 8 8
9 10 11 9 8 7 7 7 8 7 10 8 5 5 5 6 6 5 7 7 8 12 12 12 12 11 11 10 10 9 8 8 7 8 8 8 7 7
10 10 11 9 10 8 7 8 8 7 9 10 7 5 6 6 5 5 5 5 5 9 11 11 11 11 10 10 9 9 8 8 7 7 8 8 7 6
10 10 11 10 11 8 9 9 7 8 7 8 8 5 5 4 4 4 5 3 4 6 7 8 9 9 9 9 8 8 8 7 7 7 7 6 6 6
10 10 10 11 11 10 9 9 8 8 7 7 7 6 5 4 3 4 3 2 3 3 4 5 7 7 8 8 8 7 7 7 6 6 6 6 5 5
9 10 10 11 13 11 9 8 8 7 7 7 7 6 6 5 5 3 4 2 2 2 2 2 2 3 4 6 7 7 7 7 6 6 6 6 5 4
9 9 9 10 13 15 15 14 12 10 9 8 7 8 8 6 4 4 3 3 3 1 1 2 1 2 2 3 6 7 7 6 6 5 5 5 4 4
8 8 8 8 10 8 11 13 13 15 14 11 10 9 8 6 5 5 5 4 3 2 1 1 0 1 1 3 6 6 6 6 6 5 5 5 4 4
8 8 7 7 7 7 7 7 7 9 10 8 8 8 7 6 6 5 4 2 0 0 2 1 0 0 0 2 5 6 6 6 6 6 5 5 5 4
7 7 7 6 10 10 7 6 6 6 7 8 8 7 8 8 6 4 4 4 2 1 1 1 1 1 1 1 3 5 6 7 6 6 5 5 4 4
6 6 8 8 9 10 7 6 7 6 4 3 3 3 3 4 5 5 6 5 3 1 1 2 2 2 1 1 1 2 4 6 6 6 6 6 5 4
6 5 5 8 10 10 8 6 8 6 3 3 2 2 2 2 1 1 2 4 4 2 3 2 2 2 2 1 1 1 2 3 4 4 5 6 6 6
6 5 4 7 9 9 6 5 6 4 2 2 2 2 2 2 1 2 3 4 2 2 4 3 3 4 4 2 1 1 2 2 3 3 3 5 5 6
5 6 7 8 8 6 5 4 3 2 2 2 3 3 2 3 3 3 4 5 5 4 2 2 4 5 3 3 3 2 1 2 2 3 3 3 3 4
5 6 7 6 5 4 3 2 0 2 3 3 3 3 3 3 3 3 3 4 3 3 4 4 4 5 4 4 4 3 2 2 2 3 4 3 3 3
5 3 3 3 3 2 2 2 1 1 2 3 4 3 3 3 2 2 3 3 3 2 3 4 6 6 5 4 4 4 4 3 4 4 4 4 3 2
4 2 3 2 2 2 2 2 0 1 2 3 4 4 4 4 3 3 4 4 5 4 3 3 4 4 4 5 4 5 4 4 4 4 4 4 3 2
3 2 3 2 2 2 1 1 1 1 2 3 4 4 4 4 4 4 4 4 4 4 3 3 3 4 5 3 3 4 4 5 4 4 3 3 3 1
2 2 3 3 2 2 1 1 0 1 2 3 4 4 4 5 5 4 4 5 5 4 3 2 2 3 5 5 3 2 4 5 5 4 3 3 3 2
3 3 2 2 2 2 1 0 1 2 3 4 4 5 5 5 5 5 5 7 5 5 5 3 3 6 6 6 6 4 4 5 5 4 4 4 3 3
4 3 3 2 1 1 1 0 1 2 3 4 4 5 4 5 5 5 5 5 4 5 6 4 4 5 4 6 7 6 5 5 8 9 6 3 3 2
4 4 3 2 1 1 0 1 1 1 2 4 4 4 5 5 5 5 5 5 6 7 7 6 5 5 6 7 8 7 7 6 5 5 5 8 8 7
Wind_Direction
243 243 246 249 246 244 237 229 244 265 270 263 250 226 224 234 244 244 245 246 250 250 242 240 241 241 242 243 248 243 243 242 236 231 228 229 235 241
245 244 248 252 248 245 236 234 236 249 263 265 261 251 236 255 254 248 246 248 250 248 240 236 237 239 239 237 243 240 235 227 225 224 222 224 234 234
252 246 248 248 247 247 239 234 238 241 257 270 262 253 238 241 255 246 243 232 240 245 239 236 234 234 232 232 231 225 218 216 222 217 219 222 227 231
255 250 250 248 243 244 241 237 239 242 250 264 271 258 251 234 240 254 254 241 234 241 237 233 228 228 226 224 218 211 208 208 214 211 214 216 221 226
254 252 251 245 244 243 242 240 239 244 244 252 267 264 260 242 238 258 247 244 240 228 230 225 222 221 217 216 207 203 203 203 203 201 204 207 208 218
255 252 253 245 242 240 242 239 237 239 240 243 257 263 256 240 225 237 251 245 247 234 230 224 216 213 208 205 198 196 193 193 196 196 195 192 197 208
264 257 253 254 251 245 244 236 232 237 237 239 245 254 252 233 231 229 239 262 267 237 224 237 204 202 195 186 179 176 179 182 186 187 189 187 193 204
268 265 259 256 259 255 254 249 239 235 234 237 244 242 246 240 239 223 223 243 259 201 178 266 203 205 195 166 165 169 172 172 169 173 179 179 183 185
267 267 265 260 262 254 256 256 250 246 244 239 238 242 239 229 220 223 220 229 247 218 152 279 251 212 193 156 160 166 168 165 165 168 166 163 163 162
272 267 263 262 257 254 253 248 244 245 246 243 237 241 237 224 214 216 196 166 145 181 157 217 323 68 55 134 153 161 158 157 157 154 149 148 148 147
279 269 259 258 255 259 258 253 253 252 250 242 238 238 234 222 206 182 169 163 199 256 111 147 153 84 64 62 140 141 143 145 144 140 140 138 136 128
289 279 267 262 261 263 252 244 249 249 233 225 228 229 213 198 215 209 187 182 187 210 182 151 160 123 84 43 70 112 126 135 133 133 130 135 132 115
292 289 278 272 273 276 270 253 245 243 218 199 193 180 162 157 171 187 179 180 184 205 181 156 161 145 141 132 29 59 101 115 111 117 123 126 128 125
295 296 293 290 289 291 286 259 246 245 209 188 176 163 154 152 137 108 104 99 104 174 173 170 170 162 146 142 138 69 68 95 109 108 99 99 101 105
300 298 299 296 296 296 291 276 255 205 166 171 163 162 159 156 138 113 100 93 76 69 91 154 157 154 145 153 152 145 95 71 91 105 99 98 101 101
322 322 326 330 329 326 324 319 287 158 161 163 151 145 136 134 135 142 134 120 94 61 50 75 118 135 134 133 141 145 134 138 122 105 98 88 82 86
322 334 350 349 350 355 358 2 82 135 149 146 148 148 145 137 134 136 134 124 130 135 101 83 87 93 96 123 129 133 125 119 129 116 102 91 76 76
331 348 342 335 326 328 338 345 30 145 150 151 155 157 153 146 136 124 125 129 130 130 126 128 121 106 85 57 70 129 116 115 113 105 103 104 89 55
342 337 329 326 326 332 334 328 284 176 158 156 157 155 152 147 140 137 135 130 126 129 138 153 150 138 125 103 35 62 123 125 114 100 93 99 112 88
349 332 325 327 332 334 334 320 297 149 144 146 145 145 147 146 143 143 143 141 137 136 129 124 125 130 132 134 122 77 95 127 124 113 93 83 80 76
342 337 331 330 332 334 337 333 136 148 148 146 146 146 147 144 144 144 142 139 138 137 133 120 101 108 108 104 101 87 69 80 105 122 118 104 86 71
336 336 333 333 332 322 334 78 114 129 146 146 145 144 145 145 144 141 141 141 135 128 120 113 107 102 100 112 115 112 96 77 76 80 79 99 130 136
339 339 332 330 327 324 20 111 124 125 143 144 142 143 141 138 136 136 135 133 129 123 119 114 102 94 99 111 115 113 106 96 83 73 59 61 79 94
Height
1406 1406 1405 1405 1406 1406 1406 1406 1406 1403 1400 1400 1402 1403 1405 1406 1408 1409 1409 1410 1411 1413 1415 1416 1418 1420 1421 1423 1424 1426 1427 1428 1430 1431 1433 1434 1436 1437
1398 1398 1398 1398 1398 1399 1399 1399 1399 1399 1395 1394 1395 1396 1398 1399 1401 1402 1402 1403 1405 1406 1408 1409 1411 1413 1415 1416 1418 1419 1421 1422 1423 1425 1426 1428 1430 1431
1391 1391 1390 1390 1391 1391 1392 1392 1392 1392 1390 1388 1390 1390 1392 1393 1394 1395 1396 1396 1397 1399 1401 1403 1404 1407 1408 1410 1412 1413 1414 1416 1417 1419 1421 1423 1424 1425
1383 1383 1383 1383 1383 1384 1384 1384 1384 1385 1385 1382 1382 1384 1385 1386 1387 1388 1389 1389 1390 1392 1394 1396 1398 1400 1402 1403 1405 1407 1408 1410 1412 1414 1415 1417 1419 1420
1376 1376 1375 1376 1375 1376 1377 1377 1377 1379 1379 1378 1376 1377 1378 1380 1381 1382 1382 1383 1384 1386 1387 1390 1392 1394 1396 1397 1399 1400 1402 1404 1406 1408 1410 1412 1413 1415
1369 1368 1368 1368 1368 1369 1369 1370 1371 1372 1372 1372 1371 1371 1372 1374 1375 1375 1375 1377 1378 1380 1382 1384 1386 1388 1390 1391 1393 1395 1397 1399 1401 1403 1405 1406 1408 1410
1362 1361 1361 1361 1361 1362 1363 1363 1364 1365 1365 1365 1365 1366 1366 1368 1369 1369 1370 1371 1372 1375 1377 1379 1380 1382 1384 1385 1387 1389 1392 1393 1395 1397 1400 1402 1404 1405
1355 1354 1354 1354 1355 1356 1356 1357 1358 1358 1359 1359 1359 1360 1360 1362 1364 1364 1365 1366 1367 1370 1372 1373 1376 1377 1378 1380 1382 1384 1386 1388 1390 1392 1395 1397 1399 1400
1349 1348 1347 1347 1348 1348 1349 1350 1351 1352 1353 1354 1353 1354 1355 1356 1358 1359 1360 1361 1362 1365 1368 1368 1370 1372 1374 1376 1378 1380 1382 1384 1387 1389 1391 1393 1395 1396
1344 1342 1341 1341 1342 1343 1342 1342 1343 1344 1346 1348 1348 1349 1350 1351 1353 1355 1355 1357 1358 1361 1364 1365 1366 1368 1370 1372 1375 1376 1378 1381 1383 1385 1387 1389 1391 1392
1338 1337 1336 1335 1336 1337 1337 1336 1337 1338 1340 1341 1343 1344 1345 1347 1349 1350 1351 1353 1354 1357 1360 1362 1363 1366 1367 1369 1371 1374 1376 1378 1380 1383 1384 1386 1388 1389
1333 1331 1331 1330 1330 1331 1331 1331 1331 1331 1333 1334 1336 1338 1340 1342 1344 1346 1347 1349 1351 1353 1356 1359 1361 1363 1365 1368 1369 1371 1373 1376 1378 1379 1381 1383 1385 1386
1328 1327 1325 1325 1325 1325 1326 1326 1326 1327 1327 1329 1330 1332 1335 1337 1339 1342 1344 1346 1348 1350 1354 1357 1358 1361 1363 1366 1368 1370 1372 1374 1375 1377 1380 1381 1383 1384
1325 1323 1321 1321 1321 1321 1320 1321 1321 1322 1323 1325 1326 1328 1331 1333 1336 1338 1341 1344 1347 1349 1352 1355 1356 1358 1360 1362 1365 1368 1370 1372 1374 1376 1378 1379 1380 1382
1322 1320 1319 1318 1317 1316 1316 1316 1317 1318 1319 1321 1323 1325 1328 1331 1334 1336 1339 1341 1344 1347 1350 1353 1355 1357 1359 1361 1363 1366 1369 1371 1373 1375 1376 1378 1379 1380
1319 1317 1316 1315 1314 1313 1313 1313 1314 1315 1317 1319 1321 1324 1327 1330 1332 1334 1337 1339 1342 1344 1348 1351 1353 1356 1358 1361 1363 1365 1368 1370 1372 1374 1375 1377 1379 1379
1317 1315 1313 1312 1311 1311 1311 1311 1312 1314 1315 1318 1320 1323 1325 1328 1330 1333 1335 1338 1340 1343 1346 1349 1352 1355 1358 1361 1363 1365 1367 1369 1371 1373 1375 1376 1378 1379
1316 1314 1312 1311 1311 1310 1310 1310 1311 1312 1314 1317 1319 1322 1324 1326 1329 1332 1334 1337 1339 1342 1345 1348 1351 1353 1357 1360 1363 1365 1367 1369 1371 1373 1375 1376 1378 1380
1315 1313 1312 1311 1310 1310 1309 1309 1310 1312 1314 1315 1318 1320 1322 1325 1328 1331 1333 1336 1339 1342 1345 1347 1350 1353 1355 1358 1363 1365 1367 1369 1371 1374 1376 1377 1379 1381
1314 1313 1312 1311 1310 1309 1309 1309 1309 1311 1313 1315 1317 1319 1322 1324 1327 1330 1333 1336 1338 1341 1344 1347 1350 1352 1354 1357 1361 1365 1368 1370 1372 1374 1376 1378 1380 1382
1314 1312 1311 1310 1309 1309 1308 1309 1309 1310 1312 1314 1317 1319 1322 1324 1327 1330 1332 1335 1338 1341 1344 1347 1350 1353 1355 1358 1362 1365 1369 1372 1374 1375 1377 1379 1381 1382
1314 1312 1311 1310 1309 1309 1309 1309 1310 1311 1312 1314 1316 1319 1322 1324 1327 1330 1332 1335 1338 1341 1344 1347 1351 1353 1356 1358 1362 1366 1369 1373 1375 1377 1379 1381 1382 1383
1314 1313 1311 1310 1310 1309 1309 1309 1310 1311 1312 1314 1317 1319 1322 1324 1327 1330 1333 1335 1338 1341 1345 1348 1352 1355 1358 1360 1363 1367 1370 1373 1376 1378 1381 1383 1384 1386